Skip Page Navigation
NASA JPL Caltech
NASA Logo - Jet Propulsion Laboratory + View the NASA Portal
+ Center for Near-Earth Object Studies
JPL Home Earth Solar System Stars & Galaxies Technology
JPL Solar System Dynamics
BODIES ORBITS EPHEMERIDES TOOLS PHYSICAL DATA DISCOVERY FAQ SITE MAP
IMPORTANT: The SSD Announcement email list is now available. Major changes are coming in the near future, including possible hostname and/or URL changes. To be notified of such changes, subscribe to this email list.

Please visit this page for more details.


JPL Small-Body Database Browser
Search: [ help ]  
80501 (2000 AX53)
Classification: Main-belt Asteroid          SPK-ID: 2080501
Ephemeris | Orbit Diagram | Orbital Elements | Mission Design | Physical Parameters | Discovery Circumstances | Close-Approach Data ]

[ show orbit diagram ]
Orbital Elements at Epoch 2458600.5 (2019-Apr-27.0) TDB
Reference: JPL 23 (heliocentric ecliptic J2000)
 Element Value Uncertainty (1-sigma)   Units 
e .0773828970359183 3.3385e-08  
a 2.286948649330266 8.2584e-09 au
q 2.109977937472709 7.5564e-08 au
i .6320130206766493 3.619e-06 deg
node 111.3789625836842 0.00035119 deg
peri 162.4423263852914 0.00035225 deg
M 53.22514435805917 2.6314e-05 deg
tp 2458413.734182197705
(2018-Oct-22.23418220)
9.2494e-05 TDB
period 1263.231790533333
3.46
6.8425e-06
1.873e-08
d
yr
n .284983328236229 1.5436e-09 deg/d
Q 2.463919361187822 8.8974e-09 au
  Orbit Determination Parameters
   # obs. used (total)      1071  
   data-arc span      21611 days (59.17 yr)  
   first obs. used      1960-09-24  
   last obs. used      2019-11-25  
   planetary ephem.      DE431  
   SB-pert. ephem.      SB431-N16  
   condition code      0  
   norm. resid. RMS      .51855  
   source      ORB  
   producer      Otto Matic  
   solution date      2019-Dec-14 07:46:52  

Additional Information
 Earth MOID = 1.09315 au 
 Jupiter MOID = 2.59262 au 
 T_jup = 3.597 
[ show covariance matrix ]

Ephemeris | Orbit Diagram | Orbital Elements | Mission Design | Physical Parameters | Discovery Circumstances | Close-Approach Data ]

Physical Parameter Table
Parameter Symbol Value Units Sigma Reference Notes
absolute magnitude H 15.7   n/a MPO453227  
diameter diameter 3.575 km 0.239 urn:nasa:pds:neowise_diameters_albedos::2.0[mainbelt] (http://adsabs.harvard.edu/abs/2011ApJ...741...68M)  
geometric albedo albedo 0.080   0.033 urn:nasa:pds:neowise_diameters_albedos::2.0[mainbelt] (http://adsabs.harvard.edu/abs/2011ApJ...741...68M)  

80501 (2000 AX53)          Discovered 2000-Jan-04 by LINEAR at Socorro
Reference: 20040504/Numbers.arcLast Updated: 2004-07-16

[ show close-approach data ]
Alternate Designations
 2000 AX53 = 2002 VZ30 
Ephemeris | Orbit Diagram | Orbital Elements | Mission Design | Physical Parameters | Discovery Circumstances | Close-Approach Data ]
ABOUT SSD CREDITS/AWARDS PRIVACY/COPYRIGHT GLOSSARY LINKS
FirstGov 2020-Jan-28 17:23 UT
(server date/time)  
NASA Home Page
Site Manager:   Ryan S. Park
Webmaster  Alan B. Chamberlin